Retour au catalogue

HAWK-2A

ActifMilitaireSSO
NORAD 47505·PAYLOAD·🇺🇸 United States

Lancé Jan 24, 2021 depuis Cape Canaveral Space Force Station

Loading…

Prochains Passages (prochaines 24 heures)

TLE

FraisSource: Space-Track

Époque: Sep 13, 2026, 16:05 UTC

1 47505U 21006CW  26256.67029278  .00004911  00000-0  14388-3 0  9994
2 47505  97.2239 299.9679 0004673 238.7988 121.2798 15.35658856313077

Suivez HAWK-2A en temps réel avec AllMySat

Download on the App Store